Location: Marengo
(51.4813°N, 109.7825°W)
Time: 03:20:28
(UTC+00:00)

X-37B - Visible Passes

Search period start: 27 January 2022 00:00
Search period end: 06 February 2022 00:00
Orbit: 334 x 337 km, 45.0° (Epoch: 11 January)

Date Brightness Start Highest point End Pass type
(mag) Time Alt. Az. Time Alt. Az. Time Alt. Az.
29 Jan 2.9 01:34:33 10° S 01:35:15 11° SSE 01:35:38 10° SSE visible
30 Jan 2.5 01:53:27 10° SSW 01:55:16 16° SSE 01:55:16 16° SSE visible
31 Jan 2.5 02:13:16 10° SW 02:14:53 19° SSW 02:14:53 19° SSW visible
01 Feb 2.6 00:58:53 10° SSW 01:00:47 16° SSE 01:02:40 10° ESE visible
01 Feb 3.0 02:33:24 10° SW 02:34:29 17° SW 02:34:29 17° SW visible
02 Feb 2.3 01:18:42 10° SW 01:20:56 21° S 01:22:51 12° SE visible
02 Feb 3.6 02:53:46 10° WSW 02:54:05 12° SW 02:54:05 12° SW visible
03 Feb 2.3 01:38:50 10° SW 01:41:08 22° S 01:42:28 16° SE visible
04 Feb 2.5 01:59:12 10° WSW 02:01:19 19° S 02:02:08 17° SSE visible
05 Feb 3.0 02:19:56 10° SW 02:21:27 14° SSW 02:21:52 13° S visible
